Effective Sunday, March 17, 2024, the National Weather Service National Data Buoy Center will discontinue its Dial-A-Buoy Interactive Voice Response system. For more information, see Service Change Notice 24-06 (PDF).

Station FRVM3 - 8447386 - Fall River, MA Image indicating link to RSS feed of recent meteorological observations for station FRVM3


Conditions at FRVM3 as of
(7:48 am EST)
1248 GMT on 03/03/2024:
     

Click on the graph icon in the table below to see a time series plot of the last five days of that observation.

5-day plot - Atmospheric Pressure Atmospheric Pressure (PRES):30.08 in
5-day plot - Water Temperature Water Temperature (WTMP): 41.4 °F
NOS Water Level Observation Network Water Level
Previous observations
TIME
(EST)
5-day plot - Wind Direction
WDIR
 
5-day plot - Wind Speed
WSPD
kts
5-day plot - Wind Gust
GST
kts
5-day plot - Wave Height
WVHT
ft
5-day plot - Dominant Wave Period
DPD
sec
5-day plot - Average Wave Period
APD
sec
5-day plot - Mean Wave Direction
MWD
 
5-day plot - Atmospheric Pressure
PRES
in
5-day plot - Pressure Tendency
PTDY
in
5-day plot - Air Temperature
ATMP
°F
5-day plot - Water Temperature
WTMP
°F
5-day plot - Dew Point
DEWP
°F
5-day plot - Salinity
SAL
psu
5-day plot - Visibility
VIS
nmi
5-day plot - Tide (above MLLW)
TIDE
ft
2024-03-03 07:42 am-------30.08-- 41.4----
2024-03-03 07:36 am-------30.07-- 41.4----
2024-03-03 07:30 am---------- 41.4----
2024-03-03 07:24 am---------- 41.4----
2024-03-03 07:18 am-------30.07- 45.9 41.4----
2024-03-03 07:12 am-------30.06- 45.5 41.4----
2024-03-03 07:06 am-------30.06- 45.1 41.2----
2024-03-03 07:00 am-------30.06+0.03 45.3 41.2----
2024-03-03 06:54 am-------30.06- 45.1 41.4----
2024-03-03 06:48 am-------30.06- 45.0 41.4----
2024-03-03 06:42 am-------30.05- 45.3 41.4----
2024-03-03 06:36 am-------30.05- 45.3 41.4----
2024-03-03 06:30 am-------30.05- 45.3 41.2----
2024-03-03 06:24 am-------30.04- 45.3 41.2----
2024-03-03 06:18 am-------30.05- 45.5 41.2----
2024-03-03 06:12 am-------30.05- 45.7 41.2----
2024-03-03 06:06 am-------30.04- 45.7 41.4----
2024-03-03 06:00 am-------30.05+0.01- 41.2----
2024-03-03 05:54 am-------30.04-- 41.2----
2024-03-03 05:48 am-------30.04- 46.9 41.2----
2024-03-03 05:42 am-------30.04- 46.9 41.2----
2024-03-03 05:36 am-------30.04- 47.3 41.2----
2024-03-03 05:30 am-------30.04- 47.3 41.2----
2024-03-03 05:24 am-------30.03- 47.3 41.4----
2024-03-03 05:18 am-------30.03- 47.1 41.5----
2024-03-03 05:12 am-------30.03- 47.1 41.5----
2024-03-03 05:06 am-------30.03- 47.1 41.5----
2024-03-03 05:00 am-------30.04-0.02 47.3 41.7----
2024-03-03 04:54 am-------30.03- 47.5 41.5----
2024-03-03 04:48 am-------30.04- 47.5 41.5----
2024-03-03 04:42 am-------30.04- 47.5 41.5----
2024-03-03 04:36 am-------30.04- 47.7 41.5----
2024-03-03 04:30 am-------30.03- 47.8 41.5----
2024-03-03 04:24 am-------30.03- 47.7 41.5----
2024-03-03 04:18 am-------30.03- 47.8 41.4----
2024-03-03 04:12 am-------30.03- 47.8 41.4----
2024-03-03 04:06 am-------30.03- 47.7 41.4----
2024-03-03 04:00 am-------30.03-0.07 48.0 41.5----
2024-03-03 03:54 am-------30.03- 48.0 42.1----
2024-03-03 03:48 am-------30.03- 48.2 42.1----
2024-03-03 03:42 am-------30.03- 48.2 42.1----
2024-03-03 03:36 am-------30.03- 48.2 41.9----
2024-03-03 03:30 am-------30.03- 48.4 41.9----
2024-03-03 03:24 am-------30.03- 48.4 41.2----
2024-03-03 03:18 am-------30.03- 48.4 41.2----
2024-03-03 03:12 am-------30.03- 48.4 41.2----
2024-03-03 03:06 am-------30.03- 48.6 41.0----
2024-03-03 03:00 am-------30.03-0.05 48.6 41.0----
2024-03-03 02:54 am-------30.03- 48.6 41.0----
2024-03-03 02:48 am-------30.04- 48.4 41.2----
2024-03-03 02:42 am-------30.04- 48.4 41.2----
2024-03-03 02:36 am-------30.04- 48.6 41.2----
2024-03-03 02:30 am-------30.05- 48.4 41.2----
2024-03-03 02:24 am-------30.05- 48.6 41.4----
2024-03-03 02:18 am-------30.05- 48.6 41.5----
2024-03-03 02:12 am-------30.05- 48.6 41.9----
2024-03-03 02:06 am-------30.05- 48.7 41.7----
2024-03-03 02:00 am-------30.06-0.04 48.9 41.4----
2024-03-03 01:54 am-------30.06- 48.9 41.4----
2024-03-03 01:48 am-------30.07- 48.9 41.5----
2024-03-03 01:42 am-------30.07- 48.7 41.9----
2024-03-03 01:36 am-------30.08- 48.7 41.9----
2024-03-03 01:30 am-------30.08- 48.6 41.9----
2024-03-03 01:24 am-------30.08- 48.4 41.9----
2024-03-03 01:18 am-------30.08- 48.0 41.9----
2024-03-03 01:12 am-------30.09- 47.8 41.9----
2024-03-03 01:06 am-------30.09- 47.3 41.9----
2024-03-03 01:00 am-------30.10-0.03 46.9 41.9----
2024-03-03 12:54 am-------30.11- 46.4 41.7----
2024-03-03 12:48 am-------30.11- 46.4 41.7----
2024-03-03 12:42 am-------30.11- 46.8 41.7----
2024-03-03 12:36 am-------30.11- 46.6 41.5----
2024-03-03 12:30 am-------30.11- 47.3 41.5----
2024-03-03 12:24 am-------30.11- 47.7 41.4----
2024-03-03 12:18 am-------30.11- 47.8 41.4----
2024-03-03 12:12 am-------30.11- 48.7 41.2----
2024-03-03 12:06 am-------30.08- 49.6 41.2----
2024-03-03 12:00 am-------30.08-0.11 49.8 41.0----
2024-03-02 11:54 pm-------30.08- 49.8 41.0----
2024-03-02 11:48 pm-------30.07- 50.0 41.0----
2024-03-02 11:42 pm-------30.08- 50.2 40.8----
2024-03-02 11:36 pm-------30.08- 50.4 40.8----
2024-03-02 11:30 pm-------30.09- 50.5 40.8----
2024-03-02 11:24 pm-------30.09- 50.7 40.8----
2024-03-02 11:18 pm-------30.09- 50.7 40.8----
2024-03-02 11:12 pm-------30.09- 50.4 40.8----
2024-03-02 11:06 pm-------30.09- 50.4 40.8----
2024-03-02 11:00 pm-------30.10-0.13 50.7 40.8----
2024-03-02 10:54 pm-------30.10- 50.7 40.8----
2024-03-02 10:48 pm-------30.10- 50.5 40.8----
2024-03-02 10:42 pm-------30.11- 50.5 40.8----
2024-03-02 10:36 pm-------30.11- 50.5 40.8----
2024-03-02 10:30 pm-------30.11- 50.5 40.8----
2024-03-02 10:24 pm-------30.11- 50.5 40.8----
2024-03-02 10:18 pm-------30.12- 50.5 40.8----
2024-03-02 10:12 pm-------30.12- 50.5 40.8----
2024-03-02 10:06 pm-------30.13- 50.5 40.8----
2024-03-02 10:00 pm-------30.13-0.14 50.7 40.8----
2024-03-02 09:54 pm-------30.14- 50.5 40.8----
2024-03-02 09:48 pm-------30.14- 50.5 41.0----
2024-03-02 09:42 pm-------30.14- 50.2 41.0----
2024-03-02 09:36 pm-------30.16- 50.4 40.8----
2024-03-02 09:30 pm-------30.16- 50.2 40.8----
2024-03-02 09:24 pm-------30.17- 50.0 40.8----
2024-03-02 09:18 pm-------30.17- 49.8 40.8----
2024-03-02 09:12 pm-------30.18- 50.0 40.8----
2024-03-02 09:06 pm-------30.19- 50.2 40.8----
2024-03-02 09:00 pm-------30.19-0.11 50.4 40.8----
2024-03-02 08:54 pm-------30.19- 50.5 40.8----
2024-03-02 08:48 pm-------30.19- 50.7 40.8----
2024-03-02 08:42 pm-------30.20- 50.7 40.8----
2024-03-02 08:36 pm-------30.21- 50.9 40.8----
2024-03-02 08:30 pm-------30.21- 50.2 40.8----
2024-03-02 08:24 pm-------30.22- 50.2 40.8----
2024-03-02 08:18 pm-------30.22- 50.0 40.8----
2024-03-02 08:12 pm-------30.22- 50.2 40.8----
2024-03-02 08:06 pm-------30.23- 50.2 40.8----
2024-03-02 08:00 pm-------30.23-0.09 50.4 40.8----
2024-03-02 07:54 pm-------30.23- 50.2 40.8----
2024-03-02 07:48 pm-------30.24- 50.0 40.8----
2024-03-02 07:42 pm-------30.24- 50.2 40.8----
2024-03-02 07:36 pm-------30.25- 49.6 40.8----
2024-03-02 07:30 pm-------30.25- 49.5 40.8----
2024-03-02 07:24 pm-------30.25- 49.6 40.8----
2024-03-02 07:18 pm-------30.26- 49.6 40.8----
2024-03-02 07:12 pm-------30.26- 49.6 40.8----
2024-03-02 07:06 pm-------30.27- 49.8 40.8----
2024-03-02 07:00 pm-------30.27-0.06 49.6 40.8----
2024-03-02 06:54 pm-------30.27- 49.3 40.8----
2024-03-02 06:48 pm-------30.28-- 40.8----
2024-03-02 06:42 pm-------30.28-- 40.8----
2024-03-02 06:36 pm-------30.28-- 40.8----
2024-03-02 06:30 pm-------30.28- 48.9 40.8----
2024-03-02 06:24 pm-------30.28- 48.9 40.8----
2024-03-02 06:00 pm-------30.29- 49.3 41.0----
2024-03-02 05:54 pm-------30.29- 49.1 40.8----
2024-03-02 05:48 pm-------30.30- 48.9 41.0----
2024-03-02 05:42 pm-------30.30- 48.9 40.8----
2024-03-02 05:36 pm-------30.30- 49.1 41.0----
2024-03-02 05:30 pm-------30.30-- 40.8----
2024-03-02 05:24 pm-------30.31-- 41.0----
2024-03-02 05:18 pm-------30.31-- 41.0----
2024-03-02 05:12 pm-------30.31-- 41.0----
2024-03-02 05:06 pm-------30.31-- 40.8----
2024-03-02 05:00 pm-------30.31-0.07 48.7 40.8----
2024-03-02 04:54 pm-------30.31- 48.7 40.8----
2024-03-02 04:48 pm-------30.32- 48.4 40.8----
2024-03-02 04:42 pm-------30.32- 48.6 40.8----
2024-03-02 04:36 pm-------30.32- 48.6 41.0----
2024-03-02 04:30 pm-------30.32- 48.4-----
2024-03-02 04:24 pm-------30.33- 48.2-----
2024-03-02 04:18 pm-------30.33- 48.0 41.0----
2024-03-02 04:12 pm-------30.33- 47.8 41.0----
2024-03-02 04:06 pm-------30.33- 48.0 40.6----
2024-03-02 04:00 pm-------30.33-0.07 48.2 40.8----
2024-03-02 03:54 pm-------30.33- 48.2 40.6----
2024-03-02 03:48 pm-------30.33-- 40.6----
2024-03-02 03:42 pm-------30.33-- 40.6----
2024-03-02 03:36 pm-------30.33-- 40.6----
2024-03-02 03:30 pm-------30.34- 47.7 40.6----
2024-03-02 03:24 pm-------30.34- 47.5 40.6----
2024-03-02 03:18 pm-------30.35- 47.7 40.6----
2024-03-02 03:12 pm-------30.35- 47.5 40.8----
2024-03-02 03:06 pm-------30.35- 47.5 40.8----
2024-03-02 03:00 pm--------- 47.3-----
2024-03-02 02:54 pm--------- 46.9-----
2024-03-02 02:48 pm-------30.36- 47.1 41.0----
2024-03-02 02:42 pm-------30.36- 47.3 40.8----
2024-03-02 02:36 pm-------30.37- 47.7 40.8----
2024-03-02 02:30 pm-------30.37- 48.2 41.0----
2024-03-02 02:24 pm-------30.37- 48.9 41.2----
2024-03-02 02:18 pm-------30.37- 48.9 41.2----
2024-03-02 02:12 pm-------30.38- 49.3 41.2----
2024-03-02 02:06 pm-------30.38- 49.3 41.2----
2024-03-02 02:00 pm-------30.38-0.08 48.9 41.2----
2024-03-02 01:54 pm-------30.38- 48.7 41.2----
2024-03-02 01:48 pm-------30.39- 48.9 41.2----
2024-03-02 01:42 pm-------30.39- 49.1 41.2----
2024-03-02 01:36 pm-------30.39- 49.3 41.2----
2024-03-02 01:30 pm-------30.39- 49.3 41.0----
2024-03-02 01:24 pm-------30.39- 49.1 41.0----
2024-03-02 01:18 pm-------30.40- 49.1 41.0----
2024-03-02 01:12 pm-------30.40- 49.1 41.0----
2024-03-02 01:06 pm-------30.40- 48.9 41.0----
2024-03-02 01:00 pm-------30.40-0.08 48.9 41.0----
2024-03-02 12:54 pm-------30.41- 48.7 41.0----
2024-03-02 12:48 pm-------30.41- 48.7 41.0----
2024-03-02 12:42 pm-------30.42- 48.7 41.2----
2024-03-02 12:36 pm-------30.42- 48.9 41.2----
2024-03-02 12:30 pm-------30.42- 48.7 41.2----
2024-03-02 12:24 pm-------30.42- 48.4 41.2----
2024-03-02 12:18 pm-------30.42- 48.2 41.0----
2024-03-02 12:12 pm-------30.43- 47.8 41.0----
2024-03-02 12:06 pm-------30.43- 47.7 41.0----
2024-03-02 12:00 pm-------30.44-0.06 47.5 41.0----
2024-03-02 11:54 am-------30.44- 47.1 41.0----
2024-03-02 11:48 am-------30.44- 46.9 41.0----
2024-03-02 11:42 am-------30.45- 46.9 41.0----
2024-03-02 11:36 am-------30.45- 46.9 41.0----
2024-03-02 11:30 am-------30.45- 46.9 41.0----
2024-03-02 11:24 am-------30.45- 46.9 41.0----
2024-03-02 11:18 am-------30.45- 46.9 41.0----
2024-03-02 11:12 am-------30.46- 46.9 41.0----
2024-03-02 11:06 am-------30.46- 46.9 41.0----
2024-03-02 11:00 am-------30.46-0.06 46.9 41.2----
2024-03-02 10:54 am-------30.47- 46.9 41.2----
2024-03-02 10:48 am-------30.47- 46.9 41.2----
2024-03-02 10:42 am-------30.47- 46.9 41.2----
2024-03-02 10:36 am-------30.47- 46.9 41.2----
2024-03-02 10:30 am-------30.47-- 41.2----
2024-03-02 10:24 am-------30.47-- 41.2----
2024-03-02 10:18 am-------30.47- 47.5 41.2----
2024-03-02 10:12 am-------30.47- 47.3 41.2----
2024-03-02 10:06 am-------30.48- 47.1 41.2----
2024-03-02 10:00 am-------30.48-0.05 46.6 41.2----
2024-03-02 09:54 am-------30.48- 46.2 41.2----
2024-03-02 09:48 am-------30.49- 46.6 41.2----
2024-03-02 09:42 am-------30.49- 46.0 41.2----
2024-03-02 09:36 am-------30.49- 45.5 41.2----
2024-03-02 09:30 am-------30.50- 45.0 41.2----
2024-03-02 09:24 am-------30.50- 44.6 41.2----
2024-03-02 09:18 am-------30.50- 44.4 41.2----
2024-03-02 09:12 am-------30.50- 43.9 41.4----
2024-03-02 09:06 am-------30.50- 43.3 41.4----
2024-03-02 09:00 am-------30.50-0.04 43.0 41.4----
2024-03-02 08:54 am-------30.50- 42.8 41.4----
2024-03-02 08:48 am-------30.50- 42.4 41.4----
2024-03-02 08:42 am-------30.50- 42.3 41.4----
2024-03-02 08:36 am-------30.51- 41.9 41.4----
2024-03-02 08:30 am-------30.50- 41.4 41.4----
2024-03-02 08:24 am-------30.51- 41.2 41.4----
2024-03-02 08:18 am-------30.52- 41.2 41.2----
2024-03-02 08:12 am-------30.52- 41.2 41.2----
2024-03-02 08:06 am-------30.53- 40.8 41.2----
2024-03-02 08:00 am-------30.53-0.02 40.8 41.2----
2024-03-02 07:54 am-------30.52- 40.5 41.2----